Flag for Canada Weather past 2 weeks in London, Ontario, Canada

Now
68 °F

Thunderstorms. Fog.


Feels Like: 68 °F
Forecast: N/A
Wind: 8 mph from West

Location: London Weather Station

Current Time: Sep 3, 2015 at 5:39:20 PM

Latest Report: Sep 3, 2015 at 5:00 PM


Visibility: 6 mi

Pressure: 29.98 "Hg

Humidity: 94%

Dew point: 66 °F

Location of LondonLocation

Historic Weather in London — Graph

°F

London temperature yesterday

Maximum temperature yesterday: 86 °F (at 1:00 PM)
Minimum temperature yesterday: 63 °F (at 5:48 AM)
Average temperature yesterday: 74 °F

Past Weeks' High & Low Weather Summary

 TemperatureHumidityPressure
High86 °F (Sep 2, 1:00 PM)100% (Aug 20, 9:00 AM)30.24 "Hg (Aug 20, 9:00 AM)
Low46 °F (Aug 28, 5:00 AM)47% (Aug 22, 4:00 PM)29.67 "Hg (Aug 20, 6:00 AM)
Average66 °F81%30.03 "Hg
* Reported Aug 19 4:00 PM — Sep 3 4:00 PM, London, Weather by CustomWeather, © 2015

Note: Actual official high and low records may vary slightly from our data, if they occured in-between our weather recording intervals... More about our weather records

Advertising

London weather history for previous 24 hours

 ConditionsComfort  
Time TempWeatherWind HumidityBarometerVisibility
4:00 PM
Thu, Sep 3
77 °FThunderstorms. Partly sunny.7 mph74%29.90 "Hg8 mi
3:00 PM73 °FThunderstorms. Partly sunny.9 mph78%29.95 "Hg8 mi
2:53 PM72 °FThunderstorms. Partly sunny.No wind83%29.95 "Hg8 mi
2:00 PM70 °FStrong thunderstorms. Fog.16 mph73%29.99 "Hg1 mi
1:00 PM84 °FScattered clouds.3 mph66%29.94 "Hg10 mi
12:00 PM82 °FPassing clouds.5 mph70%29.94 "Hg10 mi
11:00 AM79 °FScattered clouds.No wind79%29.96 "Hg10 mi
10:00 AM73 °FFog.No wind94%29.96 "Hg5 mi
9:00 AM70 °FFog.5 mph100%29.98 "Hg0 mi
8:00 AM68 °FFog.3 mph100%29.97 "Hg0 mi
7:00 AM66 °FFog.No wind100%29.95 "Hg0 mi
6:00 AM66 °FFog.No wind100%29.94 "Hg1 mi
5:00 AM68 °FFog.No wind100%29.94 "Hg3 mi
4:00 AM70 °FFog.5 mph100%29.95 "Hg4 mi
3:00 AM68 °FPassing clouds.2 mph100%29.93 "Hg7 mi
2:00 AM68 °FOvercast.2 mph100%29.93 "Hg8 mi
1:00 AM70 °FPassing clouds.No wind100%29.94 "Hg10 mi
12:00 AM72 °FOvercast.No wind94%29.95 "Hg10 mi
11:00 PM
Wed, Sep 2
73 °FPassing clouds.5 mph94%29.96 "Hg12 mi
10:00 PM75 °FPassing clouds.No wind83%29.97 "Hg12 mi
9:00 PM75 °FPassing clouds.5 mph83%29.95 "Hg10 mi
8:00 PM75 °FBroken clouds.No wind83%29.94 "Hg8 mi
7:00 PM81 °FBroken clouds.No wind70%29.94 "Hg10 mi
6:00 PM81 °FSprinkles. Partly sunny.6 mph66%29.94 "Hg10 mi
5:00 PM84 °FScattered showers. Partly sunny.7 mph62%29.94 "Hg10 mi
Weather by CustomWeather, © 2015

See weather overviewHow to use our weather pages